Twin Falls, ID

9:22 PM MDT on March 26, 2017 (GMT -0600)
Joslin Field-Magic Valley Regional

Weather History for KTWF - November, 2011

Change the Weather History Date:

Wednesday, November 16, 2011

  Actual Average Record
Temperature  
Mean Temperature 31 °F -  
Max Temperature 44 °F 48 °F 66 °F (1999)
Min Temperature 18 °F 27 °F 1 °F (1985)
Degree Days  
Heating Degree Days 34 28  
Month to date heating degree days 459 387  
Since 1 July heating degree days 851 1006  
Cooling Degree Days 0 0  
Month to date cooling degree days 0 0  
Year to date cooling degree days 736 680  
Moisture  
Dew Point 19 °F    
Average Humidity 58    
Maximum Humidity 77    
Minimum Humidity 39    
Precipitation  
Precipitation 0.00 in 0.03 in 0.14 in (2003)
Month to date precipitation 0.02 0.57  
Year to date precipitation 8.40 8.82  
Sea Level Pressure  
Sea Level Pressure 30.24 in    
Wind  
Wind Speed 7 mph (ENE)    
Max Wind Speed 15 mph    
Max Gust Speed 18 mph    
Visibility 10 miles    
Events      
T = Trace of Precipitation, MM = Missing Value Source: NWS Daily Summary

Daily Weather History Graph

Daily Weather History Graph

Search for Another Location

Airport or City:

Trip Planner

Search our weather history database for the weather conditions in past years. The results will help you decide how hot, cold, wet, or windy it might be!

Date:

Astronomy

Nov. 16, 2011 Rise Set
Actual Time 7:30 AM MST 5:14 PM MST
Civil Twilight 6:59 AM MST 5:45 PM MST
Nautical Twilight 6:25 AM MST 6:19 PM MST
Astronomical Twilight 5:52 AM MST 6:52 PM MST
Moon 10:34 PM MST (11/16) 12:07 PM MST (11/16)
Length of Visible Light 10h 45m
Length of Day
9h 44m
Waning Gibbous, 69% of the Moon is Illuminated
Nov 16
Waning Gibbous
Nov 18
Last Quarter
Nov 24
New
Dec 2
First Quarter
Dec 10
Full

Hourly Weather History & Observations

Time (MST) Temp. Windchill Dew Point Humidity Pressure Visibility Wind Dir Wind Speed Gust Speed Precip Events Conditions
12:53 AM 28.0 °F 17.5 °F 19.9 °F 72% 30.22 in 10.0 mi SSW 12.7 mph - N/A   Clear
1:53 AM 27.0 °F 16.1 °F 19.0 °F 72% 30.23 in 10.0 mi SSW 12.7 mph - N/A   Clear
2:53 AM 27.0 °F 16.1 °F 19.0 °F 72% 30.25 in 10.0 mi SSW 12.7 mph - N/A   Clear
3:53 AM 28.0 °F 17.5 °F 19.0 °F 69% 30.26 in 10.0 mi SSW 12.7 mph - N/A   Clear
5:53 AM 24.1 °F 17.0 °F 17.1 °F 75% 30.32 in 10.0 mi South 5.8 mph - N/A   Clear
7:53 AM 23.0 °F 14.7 °F 16.0 °F 74% 30.35 in 10.0 mi ESE 6.9 mph - N/A   Clear
8:53 AM 30.2 °F 23.4 °F 19.4 °F 64% 30.32 in 10.0 mi East 6.9 mph - N/A   Clear
9:53 AM 34.0 °F 31.0 °F 19.0 °F 54% 30.36 in 10.0 mi East 3.5 mph - N/A   Clear
10:53 AM 37.0 °F 31.6 °F 19.0 °F 48% 30.34 in 10.0 mi NE 6.9 mph - N/A   Clear
11:53 AM 39.0 °F 34.8 °F 21.0 °F 49% 30.31 in 10.0 mi NE 5.8 mph - N/A   Clear
12:53 PM 42.1 °F 37.7 °F 19.9 °F 41% 30.28 in 10.0 mi NNE 6.9 mph - N/A   Clear
1:53 PM 43.0 °F 38.2 °F 21.0 °F 42% 30.25 in 10.0 mi NNE 8.1 mph - N/A   Clear
2:53 PM 43.0 °F 37.2 °F 21.0 °F 42% 30.22 in 10.0 mi NE 10.4 mph - N/A   Clear
3:53 PM 43.0 °F 36.8 °F 19.9 °F 40% 30.19 in 10.0 mi NE 11.5 mph - N/A   Mostly Cloudy
4:53 PM 39.9 °F 34.5 °F 19.9 °F 45% 30.21 in 10.0 mi NNE 8.1 mph - N/A   Clear
5:53 PM 37.9 °F 33.5 °F 19.0 °F 47% 30.22 in 10.0 mi NNE 5.8 mph - N/A   Overcast
6:53 PM 36.0 °F 32.1 °F 19.0 °F 50% 30.22 in 10.0 mi East 4.6 mph - N/A   Scattered Clouds
7:53 PM 32.0 °F - 19.0 °F 59% 30.21 in 10.0 mi Calm Calm - N/A   Overcast
8:53 PM 35.1 °F - 19.9 °F 54% 30.17 in 10.0 mi Calm Calm - N/A   Overcast
9:53 PM 35.1 °F - 19.9 °F 54% 30.16 in 10.0 mi Calm Calm - N/A   Overcast
10:53 PM 36.0 °F 33.3 °F 19.9 °F 52% 30.16 in 10.0 mi NNW 3.5 mph - N/A   Overcast
11:53 PM 32.0 °F - 19.9 °F 61% 30.14 in 10.0 mi Calm Calm - N/A   Overcast